Simultaneous Nadir Overpasses (SNOs) Predictions

Prediction of SNOs between GOES-16 and METOP-C Satellite Orbit:

Table of predicted SNOs for the next 14.0 days since TLE Epoch: 1/23/2021
Index Date Time (GOES-16) GOES-16 Lat,Lon METOP-C Lat,Lon Distance(km) Time Diff (sec)
1 01/24/2021 02:41:09 0.01, -75.19 -0.38, -76.92 197.06 80
2 01/25/2021 02:17:49 0.00, -75.19 0.72, -71.92 371.89 80
3 01/26/2021 14:36:41 -0.00, -75.21 0.28, -76.48 144.44 80
4 01/27/2021 14:18:41 -0.00, -75.21 -0.81, -71.48 424.84 80
5 01/29/2021 02:37:42 0.00, -75.19 -0.22, -76.08 101.86 80
6 01/30/2021 02:14:24 0.00, -75.19 0.94, -71.09 467.61 80
7 01/31/2021 14:33:15 0.00, -75.23 0.08, -75.65 48.02 80
8 02/03/2021 02:34:17 -0.00, -75.22 -0.00, -75.25 3.47 80
9 02/05/2021 14:32:29 -0.00, -75.27 -0.08, -74.81 51.61 80
